When you browse on this site, cookies collect data to enhance your experience and personalize the content and advertising you see.
Visit our Privacy Policy to learn more. By continuing to use the site, you agree to this use of cookies and data.
  • In Germany
  • List of Countries
  • For 7 days
  • Water Temperature
  • Weather Map
  • Weather Widgets
  • user-avatar
    Login

    Hourly Weather Aylesbury

    Today, 23 September, Monday

    Time Temperature Precipitation Wind Pressure Humidity
    00:00 +12°C° 0 mm 3 mps 747 mmHg 95%
    01:00 +12°C° 0 mm 3 mps 747 mmHg 95%
    02:00 +12°C° 0 mm 4 mps 747 mmHg 96%
    03:00 +12°C° 0 mm 4 mps 747 mmHg 96%
    04:00 +12°C° 0 mm 4 mps 748 mmHg 95%
    05:00 +12°C° 0 mm 4 mps 748 mmHg 94%
    06:00 +12°C° 0 mm 3 mps 749 mmHg 94%
    07:00 +13°C° 0 mm 4 mps 749 mmHg 88%
    08:00 +14°C° 0 mm 4 mps 750 mmHg 81%
    09:00 +15°C° 0 mm 4 mps 750 mmHg 75%
    10:00 +16°C° 0 mm 5 mps 750 mmHg 71%
    11:00 +17°C° 0 mm 6 mps 750 mmHg 67%
    12:00 +19°C° 0 mm 6 mps 750 mmHg 63%
    13:00 +19°C° 0 mm 6 mps 750 mmHg 63%
    14:00 +18°C° 0 mm 7 mps 749 mmHg 64%
    15:00 +18°C° 0 mm 7 mps 749 mmHg 64%
    16:00 +17°C° 0.6 mm 6 mps 749 mmHg 73%
    17:00 +16°C° 0.6 mm 6 mps 748 mmHg 82%
    18:00 +14°C° 0.6 mm 6 mps 748 mmHg 91%
    19:00 +15°C° 0.2 mm 6 mps 748 mmHg 91%
    20:00 +15°C° 0.2 mm 6 mps 748 mmHg 91%
    21:00 +15°C° 0.2 mm 6 mps 748 mmHg 92%
    22:00 +15°C° 0.2 mm 5 mps 747 mmHg 92%
    23:00 +16°C° 0.2 mm 5 mps 747 mmHg 93%

    Tomorrow, 24 September, Tuesday

    Time Temperature Precipitation Wind Pressure Humidity
    00:00 +17°C° 0.2 mm 4 mps 747 mmHg 93%
    01:00 +17°C° 0.2 mm 4 mps 746 mmHg 94%
    02:00 +17°C° 0.2 mm 4 mps 746 mmHg 94%
    03:00 +17°C° 0.2 mm 4 mps 745 mmHg 95%
    04:00 +16°C° 1.2 mm 5 mps 745 mmHg 95%
    05:00 +16°C° 1.2 mm 6 mps 744 mmHg 94%
    06:00 +16°C° 1.2 mm 6 mps 743 mmHg 94%
    07:00 +16°C° 3.9 mm 6 mps 743 mmHg 94%
    08:00 +16°C° 3.9 mm 6 mps 742 mmHg 94%
    09:00 +16°C° 3.9 mm 5 mps 742 mmHg 94%
    10:00 +16°C° 2.6 mm 5 mps 742 mmHg 91%
    11:00 +17°C° 2.6 mm 4 mps 742 mmHg 89%
    12:00 +17°C° 2.6 mm 4 mps 741 mmHg 86%
    13:00 +17°C° 0.4 mm 5 mps 741 mmHg 81%
    14:00 +17°C° 0.4 mm 6 mps 742 mmHg 77%
    15:00 +18°C° 0.4 mm 7 mps 742 mmHg 73%
    16:00 +17°C° 0 mm 6 mps 742 mmHg 76%
    17:00 +15°C° 0 mm 5 mps 742 mmHg 79%
    18:00 +14°C° 0 mm 4 mps 742 mmHg 82%
    19:00 +14°C° 0.1 mm 4 mps 742 mmHg 84%
    20:00 +14°C° 0.1 mm 5 mps 742 mmHg 87%
    21:00 +14°C° 0.1 mm 5 mps 743 mmHg 89%
    22:00 +14°C° 0.4 mm 5 mps 742 mmHg 90%
    23:00 +13°C° 0.4 mm 6 mps 742 mmHg 91%

    Day after tomorrow, 25 September, Wednesday

    Time Temperature Precipitation Wind Pressure Humidity
    00:00 +13°C° 0.4 mm 6 mps 741 mmHg 92%
    01:00 +13°C° 0.3 mm 5 mps 741 mmHg 92%
    02:00 +13°C° 0.3 mm 5 mps 740 mmHg 93%
    03:00 +13°C° 0.3 mm 5 mps 740 mmHg 93%
    04:00 +13°C° 0.2 mm 4 mps 740 mmHg 94%
    05:00 +13°C° 0.2 mm 4 mps 740 mmHg 94%
    06:00 +13°C° 0.2 mm 4 mps 740 mmHg 95%
    07:00 +14°C° 0.3 mm 4 mps 740 mmHg 93%
    08:00 +14°C° 0.3 mm 4 mps 740 mmHg 91%
    09:00 +15°C° 0.3 mm 4 mps 740 mmHg 89%
    10:00 +17°C° 0.3 mm 4 mps 741 mmHg 88%
    11:00 +17°C° 0.3 mm 4 mps 741 mmHg 86%
    12:00 +17°C° 0.3 mm 4 mps 742 mmHg 85%
    13:00 +18°C° 0.2 mm 4 mps 742 mmHg 84%
    14:00 +18°C° 0.2 mm 4 mps 743 mmHg 83%
    15:00 +17°C° 0.2 mm 5 mps 743 mmHg 82%
    16:00 +17°C° 0.1 mm 4 mps 743 mmHg 84%
    17:00 +17°C° 0.1 mm 4 mps 744 mmHg 86%
    18:00 +15°C° 0.1 mm 4 mps 744 mmHg 89%
    19:00 +14°C° 0 mm 4 mps 744 mmHg 90%
    20:00 +14°C° 0 mm 3 mps 745 mmHg 92%
    21:00 +13°C° 0 mm 3 mps 745 mmHg 93%
    22:00 +13°C° 0 mm 3 mps 745 mmHg 94%
    23:00 +13°C° 0 mm 4 mps 745 mmHg 94%

    26 September, Thursday

    Time Temperature Precipitation Wind Pressure Humidity
    00:00 +14°C° 0 mm 4 mps 744 mmHg 95%
    01:00 +14°C° 0.2 mm 4 mps 744 mmHg 95%
    02:00 +15°C° 0.2 mm 4 mps 744 mmHg 95%
    03:00 +16°C° 0.2 mm 5 mps 744 mmHg 95%
    04:00 +16°C° 0.4 mm 5 mps 744 mmHg 95%
    05:00 +16°C° 0.4 mm 5 mps 744 mmHg 94%
    06:00 +16°C° 0.4 mm 6 mps 744 mmHg 93%
    07:00 +16°C° 0.3 mm 6 mps 745 mmHg 91%
    08:00 +16°C° 0.3 mm 6 mps 745 mmHg 89%
    09:00 +17°C° 0.3 mm 7 mps 745 mmHg 87%
    10:00 +16°C° 0.6 mm 6 mps 746 mmHg 87%
    11:00 +16°C° 0.6 mm 5 mps 746 mmHg 86%
    12:00 +15°C° 0.6 mm 4 mps 746 mmHg 85%
    13:00 +16°C° 0 mm 5 mps 746 mmHg 79%
    14:00 +16°C° 0 mm 5 mps 746 mmHg 73%
    15:00 +17°C° 0 mm 6 mps 746 mmHg 67%
    16:00 +16°C° 0.1 mm 5 mps 746 mmHg 71%
    17:00 +15°C° 0.1 mm 4 mps 746 mmHg 75%
    18:00 +14°C° 0.1 mm 4 mps 746 mmHg 79%
    19:00 +13°C° 0 mm 4 mps 747 mmHg 82%
    20:00 +12°C° 0 mm 4 mps 747 mmHg 84%
    21:00 +12°C° 0 mm 4 mps 747 mmHg 87%
    22:00 +11°C° 0 mm 4 mps 747 mmHg 87%
    23:00 +10°C° 0 mm 5 mps 747 mmHg 88%

    27 September, Friday

    Time Temperature Precipitation Wind Pressure Humidity
    00:00 +10°C° 0 mm 5 mps 747 mmHg 88%
    01:00 +10°C° 0 mm 5 mps 747 mmHg 88%
    02:00 +11°C° 0 mm 4 mps 747 mmHg 89%
    03:00 +11°C° 0 mm 4 mps 747 mmHg 90%
    04:00 +10°C° 0 mm 4 mps 747 mmHg 90%
    05:00 +9°C° 0 mm 5 mps 747 mmHg 90%
    06:00 +9°C° 0 mm 5 mps 747 mmHg 90%
    07:00 +11°C° 0 mm 6 mps 747 mmHg 86%
    08:00 +13°C° 0 mm 6 mps 747 mmHg 81%
    09:00 +14°C° 0 mm 7 mps 747 mmHg 77%
    10:00 +15°C° 0.1 mm 8 mps 747 mmHg 75%
    11:00 +16°C° 0.1 mm 8 mps 747 mmHg 72%
    12:00 +16°C° 0.1 mm 9 mps 747 mmHg 70%
    13:00 +16°C° 0.3 mm 9 mps 746 mmHg 71%
    14:00 +16°C° 0.3 mm 8 mps 746 mmHg 72%
    15:00 +15°C° 0.3 mm 8 mps 746 mmHg 72%
    16:00 +15°C° 0.2 mm 8 mps 746 mmHg 75%
    17:00 +14°C° 0.2 mm 7 mps 746 mmHg 78%
    18:00 +13°C° 0.2 mm 6 mps 746 mmHg 82%
    19:00 +13°C° 0 mm 6 mps 746 mmHg 82%
    20:00 +11°C° 0 mm 6 mps 746 mmHg 83%
    21:00 +11°C° 0 mm 6 mps 747 mmHg 84%
    22:00 +11°C° 0 mm 6 mps 747 mmHg 85%
    23:00 +10°C° 0 mm 6 mps 747 mmHg 86%

    28 September, Saturday

    Time Temperature Precipitation Wind Pressure Humidity
    00:00 +10°C° 0 mm 7 mps 747 mmHg 87%
    01:00 +10°C° 0.1 mm 7 mps 747 mmHg 87%
    02:00 +10°C° 0.1 mm 7 mps 747 mmHg 87%
    03:00 +10°C° 0.1 mm 7 mps 747 mmHg 87%
    04:00 +10°C° 0 mm 6 mps 747 mmHg 88%
    05:00 +10°C° 0 mm 6 mps 747 mmHg 88%
    06:00 +10°C° 0 mm 6 mps 747 mmHg 88%
    07:00 +11°C° 0 mm 7 mps 747 mmHg 84%
    08:00 +12°C° 0 mm 7 mps 748 mmHg 81%
    09:00 +13°C° 0 mm 8 mps 748 mmHg 77%
    10:00 +15°C° 0.1 mm 8 mps 748 mmHg 73%
    11:00 +15°C° 0.1 mm 8 mps 748 mmHg 70%
    12:00 +16°C° 0.1 mm 8 mps 749 mmHg 66%
    13:00 +16°C° 0.1 mm 8 mps 748 mmHg 69%
    14:00 +15°C° 0.1 mm 8 mps 748 mmHg 72%
    15:00 +15°C° 0.1 mm 8 mps 748 mmHg 75%
    16:00 +14°C° 0 mm 7 mps 748 mmHg 78%
    17:00 +14°C° 0 mm 7 mps 748 mmHg 80%
    18:00 +13°C° 0 mm 6 mps 748 mmHg 83%
    19:00 +13°C° 0.1 mm 6 mps 748 mmHg 84%
    20:00 +13°C° 0.1 mm 5 mps 749 mmHg 84%
    21:00 +12°C° 0.1 mm 5 mps 749 mmHg 85%
    22:00 +12°C° 0.1 mm 5 mps 748 mmHg 86%
    23:00 +12°C° 0.1 mm 5 mps 748 mmHg 87%
    Show more